Regional Weather Roundup
Issued by NWS

Home | Current Version | Previous Version | Text Only | Print | Product List | Glossary Off
Versions: 1 2 3 4 5 6 7 8 9 10 11 12 13 14 15 16 17 18 19 20 21 22 23 24 25 26 27 28 29 30 31 32 33 34 35 36 37 38 39 40 41 42 43 44 45 46 47 48 49 50

000
ASUS43 KOAX 051202
RWRNE

WEATHER ROUNDUP FOR NEBRASKA
NATIONAL WEATHER SERVICE OMAHA NE
600 AM CST FRI FEB 05 2016

NOTES: SATELLITE DATA IS BEING USED TO AUGMENT CLOUD COVER ABOVE
       12000 FEET.
       "FAIR" INDICATES FEW OR NO CLOUDS BELOW 12,000 FEET WITH NO
       SIGNIFICANT WEATHER AND/OR OBSTRUCTIONS TO VISIBILITY.

  * THESE STATIONS DO NOT REPORT WEATHER SUCH AS RAIN...SNOW OR FOG.

NEZ001>004-019>022-054>056-051300-
NEBRASKA PANHANDLE

CITY           SKY/WX    TMP DP  RH WIND       PRES   REMARKS
SCOTTSBLUFF    CLEAR     16  12  84 N5        30.23R WCI   9
6HR MIN TEMP:  16; 6HR MAX TEMP:  30;

ALLIANCE       CLEAR     19  13  77 W12       30.17R WCI   7
6HR MIN TEMP:  19; 6HR MAX TEMP:  28;

CHADRON        CLEAR     28  20  71 W14       30.21R WCI  17
6HR MIN TEMP:  26; 6HR MAX TEMP:  32;

SIDNEY         CLOUDY    24  16  71 NW15      30.21R WCI  11
6HR MIN TEMP:  24; 6HR MAX TEMP:  29; 6HR PCP: TRACE;

$$

NEZ057>060-069>072-079>082-051300-
SOUTHWEST NEBRASKA

CITY           SKY/WX    TMP DP  RH WIND       PRES   REMARKS
NORTH PLATTE   CLOUDY    31  27  85 W15       30.19S WCI  20
6HR MIN TEMP:  24; 6HR MAX TEMP:  31; 6HR PCP:  0.07;

IMPERIAL       CLOUDY    29  26  89 W13       30.23R WCI  19
6HR MIN TEMP:  26; 6HR MAX TEMP:  32; 6HR PCP: TRACE;

MCCOOK         CLOUDY    27  23  85 W6        30.25R WCI  20
6HR MIN TEMP:  21; 6HR MAX TEMP:  27; 6HR PCP: TRACE;

$$

NEZ005>010-023>029-035>040-094-051300-
NORTH CENTRAL NEBRASKA

CITY           SKY/WX    TMP DP  RH WIND       PRES   REMARKS
VALENTINE      CLOUDY    26  22  84 W7        30.14R WCI  18
6HR MIN TEMP:  25; 6HR MAX TEMP:  31;

AINSWORTH      CLOUDY    29  25  85 SW6       30.14R WCI  23
BROKEN BOW     LGT SNOW  30  28  92 W9        30.18S FOG     WCI  22
6HR MIN TEMP:  18; 6HR MAX TEMP:  30; 6HR PCP: TRACE;

ORD            LGT SNOW  26  24  92 S3        30.19S FOG
6HR MIN TEMP:  17; 6HR MAX TEMP:  26; 6HR PCP: TRACE;

$$

NEZ041-046>049-061>064-073>077-083>087-051300-
SOUTH CENTRAL NEBRASKA

CITY           SKY/WX    TMP DP  RH WIND       PRES   REMARKS
GRAND ISLAND   LGT SNOW  24  20  84 S13       30.26S FOG     WCI  12
6HR MIN TEMP:  15; 6HR MAX TEMP:  24; 6HR PCP: TRACE;

HASTINGS       LGT SNOW  22  18  85 S8        30.26F FOG     WCI  12
6HR MIN TEMP:  14; 6HR MAX TEMP:  22; 6HR PCP: TRACE;

KEARNEY *      CLOUDY    25 -22  12 SW10      30.24S WCI  15
$$

NEZ011>018-030>034-042>045-051300-
NORTHEAST NEBRASKA

CITY           SKY/WX    TMP DP  RH WIND       PRES   REMARKS
NORFOLK        CLOUDY    23  16  74 S13       30.24F WCI  11
6HR MIN TEMP:   7; 6HR MAX TEMP:  23;

BLAIR          CLOUDY    17  15  92 S5        30.31R FOG     WCI  10
COLUMBUS *     CLOUDY    19  10  68 SE6       30.29S WCI  11
FREMONT        CLOUDY    18  17  94 CALM      30.33R
TEKAMAH        CLOUDY    10   8  92 S5        30.34R FOG     WCI   2
6HR MIN TEMP:   5; 6HR MAX TEMP:  10;

$$

NEZ050>053-065>068-078-088>093-051300-
SOUTHEAST NEBRASKA

CITY           SKY/WX    TMP DP  RH WIND       PRES   REMARKS
LINCOLN        CLOUDY    15  13  91 S5        30.35S WCI   8
6HR MIN TEMP:  10; 6HR MAX TEMP:  15;

OMAHA EPPLEY   CLOUDY    19  16  88 SE8       30.34S WCI   9
6HR MIN TEMP:  15; 6HR MAX TEMP:  19;

BEATRICE       CLOUDY    19  17  90 CALM      30.35R
FALLS CITY     CLOUDY    22  19  89 CALM      30.37R
6HR MIN TEMP:  20; 6HR MAX TEMP:  23;

NEBRASKA CITY  CLOUDY    19  17  91 S5        30.35R WCI  12
$$

NEZ044-045-051>053-067-051300-
OMAHA AREA

CITY           SKY/WX    TMP DP  RH WIND       PRES   REMARKS
OMAHA EPPLEY   CLOUDY    19  16  88 SE8       30.34S WCI   9
6HR MIN TEMP:  15; 6HR MAX TEMP:  19;

BLAIR          CLOUDY    17  15  92 S5        30.31R FOG     WCI  10
FREMONT        CLOUDY    18  17  94 CALM      30.33R
OFFUTT AFB     CLOUDY    18  16  95 CALM      30.34S
WAHOO          CLOUDY    13  11  91 CALM      30.33R
$$



USA.gov is the U.S. government's official web portal to all federal, state and local government web resources and services.